Startseite
Über Mich
AHP4
Galerie
Sehschlangen
Tourenbuch
Bookmarks
Elektronik
Bewertung
Geschichten
[Tagesmessung] [Jahreswerte] [Information]

Messwerte vom 20.05.2024

Die letzten Messwerte von 04:19:51 Uhr:
KategorieMesswert
Temperatur [°C]10
Luftdruck [mBar]994
Sonneneinstrahlung0
Wind [km/h]0 aus Nordost
Niederschlag [l/m²]0
rel.Luftfeucht.96.6%
CO2 [ppm]481

Diagramme
Messwerte vom 20.05.2024
Tagesaggregation
KategorieMinimumMaximumSchnittSumme
Temperatur [°C]101210.4943
Luftdruck [mBar]993995993.9540
Sonneneinstrahlung00.0000
Wind [km/h]3
rF [%]96.696.696.6
Niederschlag [l/m²]0
CO2 [ppm]462509486.5
Taupunkt [°C]
Einordnung alsVegetationstag
Wolkenklimatag

Messungen an benachbarten Tagen: Zur Jahresaggregation 2024
Tabelle aller Messwerte
UhrzeitTemperatur [°C]Luftdruck [mBar]SonneWind [km/h]RichtungRegen [l/m²]rF [%]CO2 [ppm]
00:01:49 12 994 0 0 NW 0 96.6 467
00:04:49 12 994 0 0 NW 0 96.6 462
00:07:49 12 993 0 0 NW 0 96.6 468
00:10:49 12 994 0 0 NW 0 96.6 476
00:13:48 12 994 0 0 NO 0 96.6 480
00:16:47 12 994 0 0 S 0 96.6 477
00:19:49 12 994 0 0 S 0 96.6 483
00:22:48 11 994 0 0 NW 0 96.6 483
00:25:50 11 994 0 0 S 0 96.6 478
00:28:47 11 994 0 3 S 0 96.6 474
00:31:46 11 994 0 0 - 0 96.6 480
00:34:47 11 994 0 0 O 0 96.6 476
00:37:48 11 994 0 0 SO 0 96.6 480
00:40:49 11 994 0 0 SO 0 96.6 483
00:43:48 11 994 0 0 SO 0 96.6 485
00:46:48 11 994 0 0 SO 0 96.6 485
00:49:49 11 993 0 0 SO 0 96.6 478
00:52:50 11 993 0 0 SO 0 96.6 478
00:55:47 11 993 0 0 SO 0 96.6 483
00:58:49 11 994 0 0 SO 0 96.6 489
01:01:49 11 994 0 0 SO 0 96.6 486
01:04:49 11 994 0 0 SO 0 96.6 489
01:07:50 11 994 0 0 NO 0 96.6 485
01:10:51 11 993 0 0 NW 0 96.6 483
01:13:51 11 994 0 0 NW 0 96.6 480
01:16:47 11 993 0 0 NW 0 96.6 483
01:19:50 11 994 0 0 NW 0 96.6 486
01:22:49 11 994 0 0 NW 0 96.6 488
01:25:48 11 994 0 0 NW 0 96.6 485
01:28:50 11 993 0 0 NW 0 96.6 487
01:31:48 11 994 0 0 NW 0 96.6 488
01:34:48 11 994 0 0 NO 0 96.6 490
01:37:50 11 994 0 0 NO 0 96.6 495
01:40:47 11 994 0 0 NO 0 96.6 495
01:43:49 11 994 0 0 NO 0 96.6 500
01:46:48 11 994 0 0 NO 0 96.6 495
01:49:49 10 994 0 0 NO 0 96.6 492
01:52:50 10 993 0 0 NO 0 96.6 486
01:55:51 10 994 0 0 NO 0 96.6 492
01:58:48 10 993 0 0 S 0 96.6 495
02:01:46 10 994 0 0 S 0 96.6 497
02:04:50 10 994 0 0 S 0 96.6 498
02:07:50 10 994 0 0 S 0 96.6 495
02:10:48 10 994 0 0 N 0 96.6 494
02:13:47 10 994 0 0 N 0 96.6 500
02:16:47 10 993 0 0 N 0 96.6 501
02:19:47 10 994 0 0 N 0 96.6 495
02:22:47 10 994 0 0 O 0 96.6 495
02:25:49 10 994 0 0 O 0 96.6 497
02:28:47 10 994 0 0 O 0 96.6 500
02:31:51 10 994 0 0 O 0 96.6 495
02:34:48 10 994 0 0 O 0 96.6 495
02:37:47 10 994 0 0 O 0 96.6 497
02:40:47 10 994 0 0 O 0 96.6 502
02:43:49 10 994 0 0 O 0 96.6 503
02:46:47 10 994 0 0 O 0 96.6 504
02:49:49 10 994 0 0 O 0 96.6 503
02:52:48 10 994 0 0 O 0 96.6 500
02:55:47 10 994 0 0 O 0 96.6 497
02:58:46 10 994 0 0 O 0 96.6 497
03:01:45 10 994 0 0 O 0 96.6 497
03:04:49 10 994 0 0 SO 0 96.6 500
03:07:48 10 995 0 0 SO 0 96.6 500
03:10:48 10 995 0 0 SO 0 96.6 509
03:13:51 10 995 0 0 SO 0 96.6 474
03:16:47 10 994 0 0 SO 0 96.6 471
03:19:47 10 994 0 0 SO 0 96.6 465
03:22:49 10 993 0 0 NW 0 96.6 474
03:25:49 10 994 0 0 NW 0 96.6 477
03:28:50 10 994 0 3 NO 0 96.6 480
03:31:48 10 994 0 0 NO 0 96.6 483
03:34:46 10 994 0 0 NO 0 96.6 477
03:37:48 10 995 0 0 NO 0 96.6 471
03:40:48 10 994 0 0 SO 0 96.6 474
03:43:48 10 994 0 0 SO 0 96.6 478
03:46:49 10 995 0 0 SO 0 96.6 483
03:49:48 10 995 0 0 SO 0 96.6 488
03:52:47 10 994 0 0 SO 0 96.6 488
03:55:48 10 994 0 0 SO 0 96.6 486
03:58:49 10 994 0 0 SO 0 96.6 483
04:01:48 10 994 0 0 SO 0 96.6 480
04:04:50 10 995 0 0 SO 0 96.6 480
04:07:48 10 994 0 0 SO 0 96.6 477
04:10:47 10 994 0 0 SO 0 96.6 480
04:13:50 10 994 0 0 NW 0 96.6 480
04:16:47 10 994 0 0 NO 0 96.6 479
04:19:51 10 994 0 0 NO 0 96.6 481

Letzte Änderung : 22-Aug-2023
Copyright Jens Köhler, Wolfsburg, Obere Dorfstraße 10d